Location: Grisols
(45.0093°N, 3.1167°E)
Time: 15:20:06
(UTC+00:00)

BREEZE-M DEB (TANK) - Pass Details

Date: 21 October 2019
Orbit: 669 x 22260 km, 51.1° (Epoch: 13 November)

Event Time Altitude Azimuth Distance (km) Brightness Sun altitude
Rises 17:59:34 0° 297° (WNW) 3,065 7.2 -12.4°
Reaches altitude 10° 18:01:13 10° 299° (WNW) 2,294 6.4 -12.7°
Maximum altitude 18:05:39 81° 27° (NNE) 1,174 3.9 -13.5°
Enters shadow 18:18:42 11° 116° (ESE) 6,382 7.1 -15.8°
